TimeEST,TemperatureF,Dew PointF,Humidity,Sea Level PressureIn,VisibilityMPH,Wind Direction,Wind SpeedMPH,Gust SpeedMPH,PrecipitationIn,Events,Conditions,WindDirDegrees,DateUTC
12:15 AM,35.6,25.9,68,30.27,10.0,SSW,6.9,-,N/A,,Clear,200,2012-11-29 05:15:00
12:35 AM,35.6,23.9,62,30.27,10.0,South,5.8,-,N/A,,Clear,190,2012-11-29 05:35:00
12:55 AM,35.6,23.0,60,30.27,10.0,South,5.8,-,N/A,,Clear,190,2012-11-29 05:55:00
1:15 AM,35.4,23.0,61,30.27,10.0,SSW,3.5,-,N/A,,Clear,200,2012-11-29 06:15:00
1:35 AM,35.8,23.5,61,30.26,10.0,SSW,4.6,-,N/A,,Clear,200,2012-11-29 06:35:00
1:56 AM,36.0,23.9,62,30.26,10.0,South,6.9,-,N/A,,Clear,190,2012-11-29 06:56:00
2:15 AM,36.1,23.9,61,30.27,10.0,SSW,6.9,-,N/A,,Clear,200,2012-11-29 07:15:00
2:35 AM,36.3,24.8,63,30.27,10.0,SSW,6.9,-,N/A,,Clear,200,2012-11-29 07:35:00
2:55 AM,36.1,25.3,65,30.27,10.0,SSW,6.9,-,N/A,,Clear,200,2012-11-29 07:55:00
3:15 AM,35.6,25.5,67,30.28,10.0,SSW,5.8,-,N/A,,Clear,210,2012-11-29 08:15:00
3:35 AM,35.8,26.6,69,30.27,10.0,South,6.9,-,N/A,,Clear,180,2012-11-29 08:35:00
3:55 AM,35.4,26.4,70,30.27,10.0,South,5.8,-,N/A,,Clear,190,2012-11-29 08:55:00
4:15 AM,34.5,26.1,71,30.27,10.0,South,5.8,-,N/A,,Clear,190,2012-11-29 09:15:00
4:36 AM,34.3,26.2,72,30.26,10.0,South,6.9,-,N/A,,Clear,190,2012-11-29 09:36:00
4:55 AM,34.7,26.4,72,30.25,10.0,South,5.8,-,N/A,,Clear,190,2012-11-29 09:55:00
5:15 AM,34.7,26.6,72,30.25,10.0,South,8.1,-,N/A,,Clear,180,2012-11-29 10:15:00
5:35 AM,34.7,26.6,72,30.24,10.0,SSW,6.9,-,N/A,,Clear,200,2012-11-29 10:35:00
5:55 AM,34.9,27.0,73,30.25,10.0,SSW,5.8,-,N/A,,Clear,200,2012-11-29 10:55:00
6:15 AM,34.9,27.0,73,30.25,10.0,SSW,4.6,-,N/A,,Clear,210,2012-11-29 11:15:00
6:35 AM,34.7,26.6,72,30.25,10.0,SSW,5.8,-,N/A,,Clear,200,2012-11-29 11:35:00
6:55 AM,34.3,26.6,73,30.25,10.0,SSW,5.8,-,N/A,,Clear,200,2012-11-29 11:55:00
7:15 AM,34.2,27.0,75,30.25,10.0,SSW,5.8,-,N/A,,Clear,200,2012-11-29 12:15:00
7:35 AM,34.2,27.1,75,30.24,10.0,South,6.9,-,N/A,,Clear,190,2012-11-29 12:35:00
7:56 AM,34.2,27.0,75,30.24,10.0,South,5.8,-,N/A,,Clear,190,2012-11-29 12:56:00
8:15 AM,34.2,26.4,73,30.24,10.0,South,8.1,-,N/A,,Clear,190,2012-11-29 13:15:00
8:35 AM,34.3,26.4,73,30.24,10.0,SSW,6.9,-,N/A,,Clear,210,2012-11-29 13:35:00
8:55 AM,35.4,26.6,70,30.24,10.0,SSW,6.9,-,N/A,,Clear,200,2012-11-29 13:55:00
9:15 AM,36.7,26.8,67,30.24,10.0,SSW,6.9,-,N/A,,Clear,200,2012-11-29 14:15:00
9:36 AM,38.1,27.1,65,30.25,10.0,SSW,6.9,-,N/A,,Clear,200,2012-11-29 14:36:00
9:55 AM,39.6,27.3,62,30.24,10.0,SSW,6.9,-,N/A,,Clear,200,2012-11-29 14:55:00
10:15 AM,40.8,27.3,59,30.24,10.0,SSW,10.4,-,N/A,,Clear,200,2012-11-29 15:15:00
10:36 AM,42.3,27.5,56,30.24,10.0,SSW,10.4,16.1,N/A,,Clear,200,2012-11-29 15:36:00
10:55 AM,43.2,27.7,54,30.23,10.0,South,10.4,17.3,N/A,,Clear,190,2012-11-29 15:55:00
11:15 AM,44.6,28.0,52,30.23,10.0,SSW,9.2,18.4,N/A,,Clear,200,2012-11-29 16:15:00
11:35 AM,45.9,28.0,50,30.22,10.0,SSW,11.5,-,N/A,,Clear,210,2012-11-29 16:35:00
11:55 AM,47.1,27.9,47,30.21,10.0,SSW,10.4,-,N/A,,Clear,200,2012-11-29 16:55:00
12:15 PM,48.2,28.0,46,30.21,10.0,SW,9.2,-,N/A,,Clear,220,2012-11-29 17:15:00
12:35 PM,48.7,27.1,43,30.19,10.0,SW,12.7,17.3,N/A,,Clear,230,2012-11-29 17:35:00
12:55 PM,49.8,27.0,41,30.18,10.0,SW,9.2,-,N/A,,Clear,220,2012-11-29 17:55:00
1:15 PM,50.2,27.1,41,30.17,10.0,SW,9.2,-,N/A,,Clear,220,2012-11-29 18:15:00
1:35 PM,51.3,27.3,40,30.17,10.0,SSW,8.1,-,N/A,,Clear,200,2012-11-29 18:35:00
1:56 PM,52.0,27.7,39,30.17,10.0,SW,9.2,-,N/A,,Clear,230,2012-11-29 18:56:00
2:15 PM,51.4,29.1,42,30.17,10.0,WSW,8.1,-,N/A,,Clear,240,2012-11-29 19:15:00
2:35 PM,51.1,30.6,45,30.16,10.0,WSW,6.9,-,N/A,,Clear,250,2012-11-29 19:35:00
2:55 PM,50.9,29.3,43,30.15,10.0,SW,5.8,-,N/A,,Clear,230,2012-11-29 19:55:00
3:15 PM,51.1,29.7,44,30.15,10.0,SSW,4.6,-,N/A,,Clear,210,2012-11-29 20:15:00
3:35 PM,51.1,28.9,43,30.14,10.0,South,5.8,-,N/A,,Clear,190,2012-11-29 20:35:00
3:55 PM,50.7,28.9,43,30.14,10.0,South,9.2,-,N/A,,Clear,180,2012-11-29 20:55:00
4:16 PM,50.4,28.6,43,30.14,10.0,South,5.8,-,N/A,,Clear,190,2012-11-29 21:16:00
4:35 PM,50.0,29.1,45,30.14,10.0,SSW,5.8,-,N/A,,Clear,210,2012-11-29 21:35:00
4:55 PM,48.7,29.3,47,30.14,10.0,South,4.6,-,N/A,,Clear,190,2012-11-29 21:55:00
5:15 PM,46.9,29.3,50,30.14,10.0,SSE,3.5,-,N/A,,Clear,160,2012-11-29 22:15:00
5:35 PM,45.3,29.8,55,30.14,10.0,Calm,Calm,-,N/A,,Clear,0,2012-11-29 22:35:00
5:56 PM,45.3,29.8,55,30.14,10.0,SSE,3.5,-,N/A,,Clear,160,2012-11-29 22:56:00
6:15 PM,43.5,30.7,61,30.15,10.0,South,3.5,-,N/A,,Clear,170,2012-11-29 23:15:00
6:35 PM,44.8,31.3,59,30.14,10.0,SSE,3.5,-,N/A,,Clear,160,2012-11-29 23:35:00
6:56 PM,45.0,31.5,59,30.15,10.0,SSE,4.6,-,N/A,,Clear,160,2012-11-29 23:56:00
7:15 PM,44.4,31.3,60,30.15,10.0,Calm,Calm,-,N/A,,Clear,0,2012-11-30 00:15:00
7:36 PM,44.1,30.9,60,30.15,10.0,SSE,3.5,-,N/A,,Clear,150,2012-11-30 00:36:00
7:55 PM,43.7,31.1,61,30.15,10.0,SSE,4.6,-,N/A,,Clear,160,2012-11-30 00:55:00
8:15 PM,43.2,31.5,63,30.16,10.0,SSE,3.5,-,N/A,,Clear,160,2012-11-30 01:15:00
8:35 PM,43.0,31.6,64,30.16,10.0,Calm,Calm,-,N/A,,Clear,0,2012-11-30 01:35:00
8:55 PM,43.2,31.8,64,30.17,10.0,SE,3.5,-,N/A,,Scattered Clouds,140,2012-11-30 01:55:00
9:16 PM,42.3,32.0,67,30.16,10.0,SSE,3.5,-,N/A,,Scattered Clouds,160,2012-11-30 02:16:00
9:35 PM,43.2,32.2,65,30.16,10.0,Calm,Calm,-,N/A,,Overcast,0,2012-11-30 02:35:00
9:55 PM,43.7,32.2,64,30.16,10.0,SE,3.5,-,N/A,,Overcast,140,2012-11-30 02:55:00
10:15 PM,43.9,32.5,64,30.16,10.0,Calm,Calm,-,N/A,,Overcast,0,2012-11-30 03:15:00
10:35 PM,43.7,32.9,66,30.16,10.0,Calm,Calm,-,N/A,,Overcast,0,2012-11-30 03:35:00
10:56 PM,44.2,32.9,64,30.15,10.0,SSE,3.5,-,N/A,,Overcast,160,2012-11-30 03:56:00
11:15 PM,44.6,32.9,64,30.15,10.0,South,4.6,-,N/A,,Overcast,170,2012-11-30 04:15:00
11:35 PM,44.6,32.9,64,30.14,10.0,SSE,3.5,-,N/A,,Overcast,160,2012-11-30 04:35:00
11:56 PM,45.0,32.9,63,30.14,10.0,Calm,Calm,-,N/A,,Overcast,0,2012-11-30 04:56:00